STARLINK-3301, 50169

Orbit data source: Space-Track

STARLINK-3301, 50169 is a payload satellite owned by SpaceX/Seattle (US) in LEO that was launched on Sat, 18 Dec 2021 UTC via an FALCON 9 launch vehicle from the Air Force Western Test Range (AFWTR). Payload-class satellites include a variety of spacecraft equipped with specific instruments for various scientific and technological missions. These include communications satellites like Starlink; space stations such as the ISS; scientific satellites like the Hubble; Earth observation satellites from companies like Planet Labs, Umbra, and HawkEye 360; GPS; miniature CubeSats for education and research; and military/defense satellites.

Loading next visibility...
Identifier
50169, 2021-125P
Orbit
LEO
Country
Flag of USUS
Related business
Manufacturer
SpaceX/Seattle
Mission
Operational Commercial Communications
Bus & Motor
STARLINK, Unknown motor
Mass
290 kg wet, ~270 kg dry
Launch date (UTC)
2021-12-18 (5 years ago)
Launch vehicle
FALCON 9
Launch site
Air Force Western Test Range (AFWTR)
Object type
Payload
Rocket body
Debris
Shape & HBR
Box + 1 Pan, 10.1 m
Radar Cross Section
13.562 m², Large (>1 m²)

Expand to show TLE details & history
Last TLE update: 4 hours ago

TLE from 4 hours ago
0 STARLINK-3301
1 50169U 21125P   26170.16668980  .00009302  00000-0  48757-3 0  9990
2 50169  53.1603 153.3506 0001541  61.4239  33.1872 15.16455035  5734
Epoch: 2026-06-19T04:00Z
TLE epoch observation values (Epoch: 2026-06-19T04:00:01.998Z)
Latitude
53.06372°
Longitude
-76.37147°
Altitude
522.201 km
Speed
7.609 km/s
True Right ascension
16h 44m 08s
True Declination
52° 53' 34"
Sunlit
Object was in daylight at epoch
Visualization orbit readout
Latitude
Unknown
Longitude
Unknown
Altitude
Unknown
Speed
Unknown
Apparent Right ascension
Unknown
Apparent Declination
Unknown
Sunlit
N/A
Visualization observer readout
Local Sidereal Time
18:44:02
Azimuth
Unknown
Elevation
Unknown
Doppler factor
Unknown
Orbital elements
Apogee altitude
517.882 km
Perigee altitude
515.757 km
Semi-major axis
6,894.957 km
Eccentricity
0.00015
Inclination
53.1603°
RAAN
153.3506°
Arg. of periapsis
61.4239°
True anomaly
33.19687°
Mean anomaly
33.1872°
Eccentric anomaly
33.19203°
Mean motion
3.79093 °/min
Orbital period
94.96 mins
BSTAR
0.00048757
Loading maneuver chart data...
Computing Atmospheric mass density...

Documentation

Showing up to 5 results
|